Weather in Anuradhapura

Sri Lanka     8°21′28″N   80°25′18″E
temp.,
°C
wind,
m/s
gust,
m/s
humid.,
%
clouds,
%
prec.,
mm/h
press.,
hPa
HPBL,
m
22 april, thu
thu2223:30+24ssw24914 2.6 101282
02:30+23ssw24957 0.0 1010101
05:30+23sw249753 0.0 1011109
08:30+27sw357950 0.0 1013572
11:30+32wsw325340 0.0 10111720
14:30+36wsw123699 0.0 10082744
17:30+30wsw476664 0.1 1008694
20:30+26sw378843 1.7 1011254
23 april, fri
fri2323:30+24ssw389327 2.8 1011220
02:30+24ssw38945 1.8 1009229
05:30+24ssw27966 1.8 1010196
08:30+28sw47765 0.0 1012637
11:30+32wsw445594 0.1 10111637
14:30+32w335261 0.0 10081395
17:30+30wsw58649 0.0 1008619
20:30+26ssw37825 0.1 1010313
24 april, sat
sat2423:30+24s12916 0.1 101135
02:30+24ssw38925 0.0 1009277
05:30+23s249436 0.0 1010117
08:30+29ssw466913 0.0 1011832
11:30+34sw33475 0.0 10101744
14:30+36sw223684 0.0 10062900
17:30+31sw466033 0.1 1007670
20:30+26ssw2487100 4.3 101078
25 april, sun
sun2523:30+25ssw25925 4.3 1010154
02:30+24s26955 0.0 1008206
05:30+24ssw269713 0.0 1009196
08:30+28ssw457935 0.0 1012680
11:30+33sw435236 0.0 10101787
14:30+30w776473 0.7 1007533
17:30+29w367077 1.7 1008447
20:30+26ssw2589100 4.3 1010115
26 april, mon
mon2623:30+25s2794100 4.3 1010226
02:30+24ssw289697 0.0 1008279
05:30+24ssw279785 0.0 1009233
08:30+28ssw477929 0.1 1011679
11:30+32sw455799 0.1 10091619
14:30+31wsw555798 0.0 1007904
17:30+30sw586296 0.0 1006491
20:30+26sw3985100 0.1 1009385